sat.trackr.live / text

‹ back to catalog

STARLINK-32769

NORAD 62602 · 2025-008R

PAYLOAD ACTIVE UNKNOWN

§ Identity

Operator
Country
US
Launch date
2025-01-13
Launch site
AFETR
Launch vehicle
Mass (kg)
RCS (m²)

Purposes: comms

External: N2YO · Heavens-Above · Gunter

§ Orbital elements

Epoch: 2026-05-25T04:18:38.795616Z

Period
94.27 min
Inclination
43.0053°
Eccentricity
0.0003701
Mean motion
15.27579458 rev/d
Perigee alt
480.5 km
Apogee alt
485.6 km
Semi-major
6,861.2 km
B*
1.1749e-4
RAAN
205.8492°
Arg perigee
286.8525°
Mean anomaly
73.1921°
Rev number
7,732

§ Raw data

STARLINK-327691 62602U 25008R   26145.17961569  .00002972  00000+0  11749-3 0  99972 62602  43.0053 205.8492 0003701 286.8525  73.1921 15.27579458 77325

JSON: /api/v1/satellites/62602 · /tle

For live sub-satellite position, see the globe view (requires WebGL).

§ Visibility from observer

Set your observer location to see the next 7 days of passes ≥ 10°. The values pass through the URL so the page stays shareable.

No JS? Fill the form by hand. The geolocation button needs JavaScript.